Location: Gombori
(14.9797°N, 2.9419°W)
Time: 01:52:03
(UTC+00:00)

Meteor 2-13 Rocket - Pass Details

Date: 07 December 2021
Orbit: 936 x 957 km, 82.5° (Epoch: 24 January)

Event Time Altitude Azimuth Distance (km) Brightness Sun altitude
Rises 05:37:29 0° 223° (SW) 3,618 7.3 -11.5°
Reaches altitude 10° 05:41:13 10° 246° (WSW) 2,670 6.4 -10.7°
Maximum altitude 05:44:28 15° 279° (W) 2,335 5.9 -9.9°
Drops below altitude 10° 05:47:43 10° 312° (NW) 2,663 6.2 -9.2°
Sets 05:51:28 0° 335° (NNW) 3,604 7.0 -8.3°
